[TLELIST] Archives

 

Current TLEs <24 JUN 2005>

June 24th 2005 PDT

HST 1 20580U 90037B 05174.24706016 .00000450 00000-0 22453-4 0 3642 2 20580 28.4680 229.3027 0003308 333.2409 26.8008 14.99754587631157 ISS 1 25544U 98067A 05175.37702546 .00006388 00000-0 50112-4 0 7606 2 25544 51.6444 224.0451 0003950 299.7060 244.4160 15.73066683376815 CHANDRA 1 25867U 99040B 05173.08333333 .00000000 00000-0 00000+0 0 8002 2 25867 57.2164 103.4404 5633309 298.9942 351.3281 0.37783546 1213 These 2-Line Elements (TLEs) ...Continue Reading

Current TLEs <21 JUN 2005>

June 21st 2005 PDT

HST 1 20580U 90037B 05171.25244920 .00000605 00000-0 34750-4 0 3624 2 20580 28.4681 248.8168 0003529 300.8373 59.1874 14.99753482630708 ISS 1 25544U 98067A 05172.30995569 .00016312 00000-0 12100-3 0 7359 2 25544 51.6458 239.7696 0003903 286.3044 157.4343 15.73043633376339 CHANDRA 1 25867U 99040B 05171.45833333 .00000000 00000-0 00000+0 0 7993 2 25867 57.1708 103.4575 5639739 299.1091 129.9513 0.37798015 1210 These 2-Line Elements (TLEs) ...Continue Reading

Current TLEs <15 JUN 2005>

June 16th 2005 PDT

HST 1 20580U 90037B 05166.66070790 .00000870 00000-0 55701-4 0 3594 2 20580 28.4682 278.7297 0003779 251.4137 108.6042 14.99749702630011 ISS 1 25544U 98067A 05167.09691111 .00021014 00000-0 15555-3 0 6974 2 25544 51.6461 266.4951 0004033 262.0331 162.2728 15.72883602375516 CHANDRA 1 25867U 99040B 05165.16666667 .00000000 00000-0 00000+0 0 7976 2 25867 57.1088 103.5913 5642811 299.1912 353.3896 0.37793925 1217 These 2-Line Elements (TLEs) ...Continue Reading

Current TLEs <13 JUN 2005>

June 13th 2005 PDT

HST 1 20580U 90037B 05163.73263771 .00000655 00000-0 38662-4 0 3578 2 20580 28.4683 297.8100 0003914 222.3798 137.6489 14.99745036629570 ISS 1 25544U 98067A 05164.82288594 .00015325 00000-0 11529-3 0 6817 2 25544 51.6456 278.1517 0004008 247.3290 252.2798 15.72768672375156 CHANDRA 1 25867U 99040B 05162.54166667 .00000000 00000-0 00000+0 0 7969 2 25867 57.1078 103.6166 5642479 299.2869 355.9922 0.37787142 1211 These 2-Line Elements (TLEs) ...Continue Reading

Current TLEs <10 JUN 2005>

June 10th 2005 PDT

HST 1 20580U 90037B 05159.87289796 .00000830 00000-0 52561-4 0 3549 2 20580 28.4685 322.9543 0003992 182.6417 177.4150 14.99741689628997 ISS 1 25544U 98067A 05161.11184028 .00017473 00000-0 13136-3 0 6589 2 25544 51.6459 297.1678 0004334 228.5741 125.8877 15.72664548374566 CHANDRA 1 25867U 99040B 05160.00000000 .00000000 00000-0 00000+0 0 7955 2 25867 57.0979 103.6198 5646571 299.3970 9.9367 0.37790199 1211 These 2-Line Elements (TLEs) ...Continue Reading

Current TLEs <07 JUN 2005>

June 7th 2005 PDT

HST 1 20580U 90037B 05156.87826604 .00000694 00000-0 41777-4 0 3524 2 20580 28.4687 342.4675 0004024 155.3347 204.7434 14.99737383628544 ISS 1 25544U 98067A 05158.39632353 .00018897 00000-0 14225-3 0 6417 2 25544 51.6456 311.0819 0004656 213.9087 236.5299 15.72566712374140 CHANDRA 1 25867U 99040B 05157.37500000 .00000000 00000-0 00000+0 0 7945 2 25867 57.0633 103.6412 5654831 299.4677 12.5777 0.37800392 1212 These 2-Line Elements (TLEs) ...Continue Reading

Current TLEs <26 MAY 2005>

May 26th 2005 PDT

HST 1 20580U 90037B 05142.90319376 .00000282 00000-0 92430-5 0 3421 2 20580 28.4676 73.5252 0002911 357.4257 2.6278 14.99719249626442 ISS 1 25544U 98067A 05143.98767361 .00016412 00000-0 12685-3 0 5355 2 25544 51.6463 24.8731 0005663 155.5693 43.6603 15.72054135371877 CHANDRA 1 25867U 99040B 05141.41666667 .00000000 00000-0 00000+0 0 7901 2 25867 56.8248 103.9565 5666700 299.7242 0.0256 0.37804323 1214 These 2-Line Elements (TLEs) ...Continue Reading

Current TLEs <23 MAY 2005>

May 23rd 2005 PDT

HST 1 20580U 90037B 05142.90319376 .00000282 00000-0 92430-5 0 3421 2 20580 28.4676 73.5252 0002911 357.4257 2.6278 14.99719249626442 ISS 1 25544U 98067A 05143.98767361 .00016412 00000-0 12685-3 0 5355 2 25544 51.6463 24.8731 0005663 155.5693 43.6603 15.72054135371877 CHANDRA 1 25867U 99040B 05141.41666667 .00000000 00000-0 00000+0 0 7901 2 25867 56.8248 103.9565 5666700 299.7242 0.0256 0.37804323 1214 These 2-Line Elements (TLEs) ...Continue Reading

Current TLEs <20 MAY 2005>

May 20th 2005 PDT

HST 1 20580U 90037B 05140.17470902 .00001219 00000-0 83411-4 0 3408 2 20580 28.4668 91.3055 0003332 331.9087 28.1320 14.99720004626035 ISS 1 25544U 98067A 05140.98621692 .00016682 00000-0 12937-3 0 5144 2 25544 51.6448 40.2384 0006100 144.7116 337.2226 15.71955882371403 CHANDRA 1 25867U 99040B 05138.79166667 .00000000 00000-0 00000+0 0 7891 2 25867 56.7891 104.0431 5666634 299.7340 2.6281 0.37799993 1218 These 2-Line Elements (TLEs) ...Continue Reading

Current TLEs <02 MAY 2005>

May 2nd 2005 PDT

HST 1 20580U 90037B 05122.53921690 .00000700 00000-0 42310-4 0 3286 2 20580 28.4670 206.2089 0003943 149.5529 210.5289 14.99690125623380 ISS 1 25544U 98067A 05122.92057701 .00013286 00000-0 10510-3 0 3827 2 25544 51.6444 132.6913 0008013 74.6388 355.8280 15.71694952368567 CHANDRA 1 25867U 99040B 05120.45833333 .00000000 00000-0 00000+0 0 7830 2 25867 56.5890 104.4497 5671940 299.9266 26.8383 0.37788049 1217 These 2-Line Elements (TLEs) ...Continue Reading
  • This mailing list is a public mailing list - anyone may join or leave, at any time.
  • This mailing list is announce-only.

International Space Station (ISS) / Hubble Space Telescope (HST) / Chandra X-Ray Observatory Orbital Data via EMAIL

Privacy Policy:

Private list